Preview of NWS' New Version of Forecast
This preview is not operational and should not be used for support decisions.

Regional Weather Roundup (RWR)

Issued by National Weather Service (NWS)

                            
000
ASUS43 KTOP 200608
RWRKS 

WEATHER ROUNDUP FOR KANSAS
NATIONAL WEATHER SERVICE GOODLAND KS
100 AM CDT TUE AUG 20 2019

NOTE:  "FAIR" INDICATES FEW OR NO CLOUDS BELOW 12,000 FEET WITH NO
SIGNIFICANT WEATHER AND/OR OBSTRUCTIONS TO VISIBILITY.

KSZ001>006-013>018-027>032-041>047-200700-
NORTHWEST KANSAS
  
CITY           SKY/WX    TMP DP  RH WIND       PRES   REMARKS
GOODLAND       PTCLDY    73  60  63 S8        29.99F                  
6HR MIN TEMP:  72; 6HR MAX TEMP:  91;                                

HAYS           CLEAR     77  67  71 CALM      29.87R                  
HILL CITY      CLEAR     76  69  79 NE7       29.97R                  
6HR MIN TEMP:  76; 6HR MAX TEMP:  94;                                

RUSSELL        CLEAR     78  69  73 S10       29.93R                  
6HR MIN TEMP:  78; 6HR MAX TEMP:  91;                                

$$

KSZ061>065-074>080-084>089-200700-
SOUTHWEST KANSAS
  
CITY           SKY/WX    TMP DP  RH WIND       PRES   REMARKS
DODGE CITY     CLEAR     84  65  52 S13       29.97S                  
6HR MIN TEMP:  81; 6HR MAX TEMP:  94;                                

ELKHART        CLEAR     73  61  65 S10       30.04R                  
GARDEN CITY    CLEAR     76  58  53 SE10      29.96S                  
6HR MIN TEMP:  75; 6HR MAX TEMP:  91;                                

GREAT BEND     CLEAR     79  71  76 S8        29.95R                  
LIBERAL        CLEAR     77  62  59 S14       29.99R                  
PRATT          CLEAR     84  68  58 S14       29.96R                  
6HR MIN TEMP:  84; 6HR MAX TEMP:  99;                                

$$

KSZ066>073-081>083-090>101-200700-
SOUTHEAST KANSAS
  
CITY           SKY/WX    TMP DP  RH WIND       PRES   REMARKS
CHANUTE        CLEAR     80  75  84 S7        29.99R                  
6HR MIN TEMP:  79; 6HR MAX TEMP:  92;                                

COFFEYVILLE    CLEAR     80  75  84 S6        29.97R                  
6HR MIN TEMP:  80; 6HR MAX TEMP:  90;                                

HUTCHINSON     CLEAR     83  72  69 S10       29.95R                  
6HR MIN TEMP:  83; 6HR MAX TEMP:  94;                                

MEDICINE LODGE   N/A     83  70  64 SE7       29.94S                  
NEWTON           N/A     81  74  79 S13       29.98R                  
PARSONS        CLEAR     81  75  82 S3        30.00R                  
6HR MIN TEMP:  80; 6HR MAX TEMP:  90;                                

WICHITA INTL   PTCLDY    83  74  74 S12       29.96R                  
6HR MIN TEMP:  83; 6HR MAX TEMP:  94;                                

WICHITA JABRA  CLEAR     83  74  74 S13G20    29.96R                  
6HR MIN TEMP:  83; 6HR MAX TEMP:  92;                                

WICHITA MCCONL CLEAR     84  72  65 SE15      29.97R                  
WINFIELD       CLEAR    N/A N/A N/A S10       29.98R                  
$$

KSZ007>012-019>026-033>040-048>060-102>105-200700-
NORTHEAST KANSAS
  
CITY           SKY/WX    TMP DP  RH WIND       PRES   REMARKS
CONCORDIA      CLEAR     83  77  82 S15       29.92S                  
6HR MIN TEMP:  81; 6HR MAX TEMP:  90;                                

EMPORIA        CLEAR     80  77  90 S13G22    29.97R                  
6HR MIN TEMP:  80; 6HR MAX TEMP:  90;                                

LAWRENCE       CLEAR     79  75  87 SE6       29.96S                  
6HR MIN TEMP:  79; 6HR MAX TEMP:  93;                                

MANHATTAN      CLEAR     83  76  79 S7        29.93R                  
6HR MIN TEMP:  83; 6HR MAX TEMP:  92;                                

MARYSVILLE     CLEAR     81  79  94 S7        29.94S                  
OLATHE IND     CLEAR     79  75  87 S7        29.99S                  
6HR MIN TEMP:  78; 6HR MAX TEMP:  90;                                

OLATHE EXE     CLEAR     79  76  90 S6        29.99S                  
6HR MIN TEMP:  79; 6HR MAX TEMP:  88;                                

SALINA         CLEAR     82  74  76 S12       29.93R                  
6HR MIN TEMP:  82; 6HR MAX TEMP:  90;                                

TOPEKA BILLARD CLEAR     82  75  79 S8        29.94S                  
6HR MIN TEMP:  81; 6HR MAX TEMP:  92;                                

TOPEKA FORBES  CLEAR     81  75  82 SE8       29.96S                  
6HR MIN TEMP:  81; 6HR MAX TEMP:  92;                                

$$